TimeEDT,TemperatureF,Dew PointF,Humidity,Sea Level PressureIn,VisibilityMPH,Wind Direction,Wind SpeedMPH,Gust SpeedMPH,PrecipitationIn,Events,Conditions,WindDirDegrees,DateUTC
12:53 AM,48.0,39.0,71,29.76,10.0,WSW,9.2,-,N/A,,Clear,240,2011-10-16 04:53:00
1:53 AM,48.0,39.0,71,29.77,10.0,WSW,11.5,-,N/A,,Clear,240,2011-10-16 05:53:00
2:53 AM,48.9,37.9,66,29.76,10.0,WSW,9.2,-,N/A,,Clear,240,2011-10-16 06:53:00
3:53 AM,48.9,39.0,69,29.75,10.0,SW,10.4,-,N/A,,Clear,230,2011-10-16 07:53:00
4:53 AM,50.0,39.9,68,29.75,10.0,SW,10.4,-,N/A,,Mostly Cloudy,230,2011-10-16 08:53:00
5:53 AM,51.1,39.0,63,29.76,10.0,WSW,13.8,-,N/A,,Scattered Clouds,250,2011-10-16 09:53:00
6:53 AM,50.0,37.9,63,29.76,10.0,West,15.0,21.9,N/A,,Partly Cloudy,260,2011-10-16 10:53:00
7:53 AM,48.0,39.9,74,29.77,10.0,WSW,16.1,24.2,0.00,,Mostly Cloudy,250,2011-10-16 11:53:00
8:53 AM,48.0,42.1,80,29.77,10.0,WSW,11.5,-,0.00,Rain,Light Rain,240,2011-10-16 12:53:00
9:53 AM,48.0,43.0,83,29.76,10.0,West,9.2,-,0.00,,Scattered Clouds,260,2011-10-16 13:53:00
10:53 AM,51.1,44.1,77,29.74,10.0,WSW,11.5,-,N/A,,Overcast,250,2011-10-16 14:53:00
11:30 AM,51.8,44.6,76,29.71,10.0,West,13.8,-,N/A,,Overcast,260,2011-10-16 15:30:00
11:53 AM,53.1,44.1,71,29.71,10.0,WSW,16.1,-,N/A,,Overcast,250,2011-10-16 15:53:00
12:01 PM,53.6,44.6,72,29.70,10.0,WSW,17.3,-,N/A,,Overcast,250,2011-10-16 16:01:00
12:26 PM,53.6,44.6,72,29.69,10.0,West,13.8,-,N/A,,Overcast,260,2011-10-16 16:26:00
12:53 PM,55.0,44.1,67,29.69,10.0,WSW,17.3,24.2,N/A,,Mostly Cloudy,250,2011-10-16 16:53:00
1:08 PM,57.2,44.6,63,29.68,10.0,WSW,19.6,24.2,N/A,,Mostly Cloudy,250,2011-10-16 17:08:00
1:53 PM,57.9,41.0,53,29.66,10.0,WSW,17.3,27.6,N/A,,Scattered Clouds,240,2011-10-16 17:53:00
2:53 PM,57.9,37.0,46,29.63,10.0,West,23.0,32.2,N/A,,Mostly Cloudy,270,2011-10-16 18:53:00
3:53 PM,55.9,37.0,49,29.63,10.0,West,18.4,24.2,N/A,,Overcast,270,2011-10-16 19:53:00
4:53 PM,59.0,30.0,33,29.63,10.0,West,20.7,32.2,N/A,,Partly Cloudy,270,2011-10-16 20:53:00
5:53 PM,57.0,30.0,36,29.64,10.0,West,19.6,31.1,N/A,,Partly Cloudy,270,2011-10-16 21:53:00
6:53 PM,54.0,32.0,43,29.65,10.0,WSW,16.1,21.9,N/A,,Scattered Clouds,250,2011-10-16 22:53:00
7:53 PM,52.0,34.0,50,29.67,10.0,WSW,11.5,-,N/A,,Partly Cloudy,240,2011-10-16 23:53:00
8:53 PM,51.1,36.0,56,29.67,10.0,SW,11.5,-,N/A,,Scattered Clouds,230,2011-10-17 00:53:00
9:53 PM,48.9,37.0,64,29.67,10.0,SW,12.7,-,N/A,,Partly Cloudy,230,2011-10-17 01:53:00
10:53 PM,48.0,37.0,66,29.68,10.0,WSW,10.4,-,N/A,,Clear,240,2011-10-17 02:53:00
11:53 PM,46.9,36.0,66,29.67,10.0,WSW,9.2,-,N/A,,Partly Cloudy,250,2011-10-17 03:53:00